20:12
Airports
History
Links
Donate
Help keep this website running!
PayPal
Bitcoin
This page is community maintained. The information is intended for PC simulator navigation or reference.
Always use approved charts for navigation.
SNML
Manduca Leao
Manduca Leao (SNML)
Satuba, Alagoas, Brazil (57100)
4
Lat/Lng:9° 32' 40" S / 35° 49' 46" W
-9.544444 / -35.829444
Elevation:387'ft / 118mMSL
ID / ICAO:SNML
Runways:1
Longest:11-29
Dirt 998m / 3,274ft
Nearby Weather20:00 GMT 2018-02-19
Nearby weather at SBMO, Zumbi Dos Palmares located 3.5 nautical miles from SNML
Altimeter: 29.83
Visibility: 6.2 statute miles
Wind: 10 knots (from 150°)
Temp: 28°c / 82°f
Humidity: 74.3%

METAR: SBMO 192000Z 15010KT 9999 SCT020 28/23 Q1010

(Powered by phpweather)
Runway 11 / 29
Dimensions:997.8 x 18m 3274' x 59'ft
Surface:Dirt
Runway 11 [A]Runway 29 [B]
Heading:087°TH 267°TH
Lat:
Lng:
9° 32' 40.79"S
35° 50' 2.41"W
9° 32' 39.21"S
35° 49' 29.59"W
User Notes and Comments
9° 32' 40" S / 35° 49' 46" W
Distance To
Airport ID:
Nearby Airports
(C) Zumbi Dos Palmares 3.5 NM
SBMO ( WX ) NE 47°
(U) Aeroclube de Alagoas 5.7 NM
SNGS ESE 121°
4 Uruba 9.7 NM
SNWZ WNW 294°
4 Laginha 22.2 NM
SNWP NW 315°
4 Usina Porto Rico 32.2 NM
SNUP SW 236°
4 Senador Teotonio Vilela 38.1 NM
SNTW SW 230°
4 Muzzi 38.6 NM
SNZZ SW 220°
VFR Chart
Flight Planning at SkyVector.com